Weather Service Report


888 
ASUS46 KLOX 042113
RWRCA 

SOUTHERN CALIFORNIA WEATHER ROUNDUP
NATIONAL WEATHER SERVICE OXNARD CALIFORNIA
200 PM PDT TUE AUG 04 2015

NOTE: "FAIR" INDICATES FEW OR NO CLOUDS BELOW 12,000 FEET WITH NO 
SIGNIFICANT WEATHER AND/OR OBSTRUCTIONS TO VISIBILITY.

  -  STATIONS PRECEEDED BY AN ASTERISK (*) ARE NOT NWS OR FAA 
     STATIONS AND ARE NOT SUBJECT TO NWS AND FAA QUALITY CONTROL.

CAZ041-042-087-042200-
LA AND ORANGE COUNTY COASTAL AREAS

  
CITY           SKY/WX    TMP DP  RH WIND       PRES   REMARKS
L.A. DOWNTOWN  SUNNY     83  63  50 W7        29.91S                  
L.A. AIRPORT   MOSUNNY   77  63  61 W17       29.94S                  
LONG BEACH     SUNNY     87  58  37 S7        29.91F                  

CITY           SKY/WX    TMP DP  RH WIND       PRES   REMARKS
AVALON           N/A     77 N/A N/A MISG        N/A                   
FULLERTON      SUNNY     87  60  40 SW8       29.90F                  
*GETTY CENTER    N/A     82  61  47 SW10        N/A                   
HAWTHORNE      SUNNY     80  62  54 SW16      29.93S                  
*LOS ALAMITOS  SUNNY     84  63  50 SW12      29.91F                  
*REDONDO BEACH   N/A     79  65  61 NW5       29.94S                  
SANTA ANA      MOSUNNY   80  62  54 W9        29.92S                  
STA MONICA APT SUNNY     78  62  57 SW9       29.94S                  
*STA MON PIER    N/A     72  66  80 W15       29.93S                  
TORRANCE       MOSUNNY   86  66  51 NW17      29.93S                  
*UCLA            N/A    N/A N/A N/A S7G15     29.91S                  

$$

CAZ547-548-048-042200-
LA COUNTY VALLEYS AND INLAND EMPIRE

  
CITY           SKY/WX    TMP DP  RH WIND       PRES   REMARKS
BURBANK        SUNNY     90  58  33 S12G17    29.92S                  
VAN NUYS       SUNNY     91  54  28 S9        29.92S                  

CITY           SKY/WX    TMP DP  RH WIND       PRES   REMARKS
CORONA AIRPORT CLEAR     92  59  33 W14G22    29.90F HX  91           
CHINO          MOSUNNY   97  53  22 SW14      29.92S HX  94           
MARCH AFB      SUNNY     94  50  22 W10       29.94F HX  91           
*NORTHRIDGE      N/A     91  52  25 SE5         N/A                   
ONTARIO        MOSUNNY   95  53  24 W13G18    29.92F HX  92           
POMONA         SUNNY     90  55  31 W12       29.96F                  
RIVERSIDE      SUNNY     95  51  22 VRB7      29.91F HX  92           
SAN BERNARDINO SUNNY     93  43  17 CALM      29.93F                  
*WHITEMAN AP   SUNNY     90  55  31 SE9G16    29.96F                  

$$

CAZ054-055-042200-
LA AND SAN BERNARDINO COUNTY MOUNTAINS

  
CITY           SKY/WX    TMP DP  RH WIND       PRES   REMARKS
*BIG BEAR AIRP CLEAR     77  30  18 W13       30.30F                  
SANDBERG       SUNNY     87  48  25 S15G25    30.13S                  

$$

CAZ028-029-059-060-099-042200-
ANTELOPE VALLEY AND SURROUNDING AREAS

  
CITY           SKY/WX    TMP DP  RH WIND       PRES   REMARKS
LANCASTER      SUNNY     98  44  15 SW22G29   29.94F HX  94           
PALMDALE       SUNNY     96  36  12 SW20G29   29.97S HX  91           

CITY           SKY/WX    TMP DP  RH WIND       PRES   REMARKS
BARSTOW/DAGGET SUNNY    105  23   5 MISG      29.88F HX  97           
BISHOP         PTSUNNY   95  28   9 S16G23    29.95F                  
EDWARDS AFB    PTSUNNY  100  35  10 SW16G28   29.90F HX  94           
MOJAVE         SUNNY     99  39  12 W9        29.95S HX  94           
NEEDLES        SUNNY    111  34   7 SW10G21   29.80F HX 104           
VICTORVILLE    SUNNY     99  32   9 CALM      29.97F HX  93           

$$

CAZ039-040-042200-
VENTURA AND SANTA BARBARA COUNTY COAST

  
CITY           SKY/WX    TMP DP  RH WIND       PRES   REMARKS
CAMARILLO      SUNNY     80  57  45 SW12      29.94R                  
OXNARD AIRPORT SUNNY     76  59  55 W18       29.94F                  
*POINT MUGU    MOSUNNY   77  59  53 W16       29.96R                  
SBA APT/GOLETA SUNNY     81  60  48 SE9       29.92F                  
*SANTA BARBARA   N/A     86  54  33 CALM      30.00F                  
*VENTURA         N/A     82  57  42 CALM      29.56S                  

$$

CAZ044-045-042200-
VENTURA COUNTY VALLEYS

  
CITY           SKY/WX    TMP DP  RH WIND       PRES   REMARKS
*SIMI VALLEY     N/A     84  60  43 SW12      29.88R                  
*OJAI            N/A     89  62  39 W1        29.85S                  

$$

CAZ053-042200-
VENTURA COUNTY MOUNTAINS

  
CITY           SKY/WX    TMP DP  RH WIND       PRES   REMARKS

$$

CAZ034-035-036-042200-
CENTRAL COAST AND SANTA YNEZ VALLEY

  
CITY           SKY/WX    TMP DP  RH WIND       PRES   REMARKS
SAN LUIS OBISP MOSUNNY   77  52  41 NW22G28   30.00S                  
SANTA MARIA    PTSUNNY   78  55  44 NW20      30.01S                  

CITY           SKY/WX    TMP DP  RH WIND       PRES   REMARKS
*LOMPOC        SUNNY     77  54  44 NW18G24   30.02S                  
*PISMO BEACH     N/A     67  61  81 W7        30.01R                  
*SANTA YNEZ    FAIR      81  46  30 NW8       29.98F                  

$$

CAZ037-038-051-042200-
SAN LUIS OBISPO COUNTY INTERIOR AND CUYAMA VALLEY

  
CITY           SKY/WX    TMP DP  RH WIND       PRES   REMARKS
*CUYAMA          N/A     88  48  24 W17       29.86S                  
PASO ROBLES    CLOUDY    78  53  41 SW5       29.98F                  

$$

CAZ032-033-061-042200-
SOUTHERN DESERTS

  
CITY           SKY/WX    TMP DP  RH WIND       PRES   REMARKS
BLYTHE         SUNNY    109  46  12 SE14G22   29.78F HX 105           
IMPERIAL       SUNNY    108  37   9 E5        29.75F HX 101           
PALM SPRINGS   SUNNY    110  31   6 VRB6      29.79F HX 102           
THERMAL        SUNNY    108  37   9 VRB7      29.74F HX 101           

$$

ELSEWHERE ACROSS THE WESTERN UNITED STATES AND MEXICO

  
CITY           SKY/WX    TMP DP  RH WIND       PRES   REMARKS
DENVER, CO     MOSUNNY   90  36  14 W9G20     30.04F                  
GRAND CANYON,  SUNNY     86  32  14 SW17      30.28F                  
HONOLULU, HI   PTSUNNY   84  70  61 S8        29.87F                  
KAHULUI, MAUI  MOSUNNY   88  73  62 NE18      29.88F HX  96           
LAKE TAHOE, CA CLOUDY    75  43  31 VRB5      30.17R                  
LAS VEGAS, NV  NOT AVBL                                               
MAMMOTH LAKES, NOT AVBL                                               
MEXICO CITY, M PTSUNNY   75  48  38 N3        30.26F                  
PHOENIX, AZ    MOSUNNY  109  46  12 S10       29.83F HX 105           
PORTLAND, OR   MOSUNNY   77  48  35 NW8       30.00F                  
RENO, NV       PTSUNNY   89  32  13 NW13      30.01F                  
SALT LAKE CITY MOSUNNY   87  48  25 NE6       30.05F                  
SAN DIEGO, CA  SUNNY     81  64  56 NW9       29.92F                  
SAN FRANCISCO, LGT RAIN  70  53  54 W14       30.01R                  
SAN JOSE, CA   PTSUNNY   71  53  52 NW8       29.99S                  
SEATTLE, WA    MOSUNNY   74  51  44 VRB6      30.01F                  
TIJUANA, MEX   SUNNY     86  59  39 W9        29.93F                  

$$
  
STATION/POSITION TIME  TEMP    WIND        PRES    VSBY  WAVE
                       AIR SEA DIR/SP/G                  HT/PER
                 (UTC) (F)     (DEG/KT/KT) (MB)    (MI)  (FT/S)
POINT ARGUELLO B NOT AVBL
WEST SANTA BARBA 2050   63 63  310/ 19/ 21 1014.6F         3/14
POINT CONCEPTION NOT AVBL
EAST SANTA BARBA 2100   68 67  270/ 16/ 19 1014.0S
SANTA MONICA BAY 2050   71 72  270/  8/ 10 1014.1S         3/15

Return to Home page


Western Regional Climate Center, wrcc@dri.edu